EW5678 Weather Reports


Display with metric or nautical units.
time (UTC)temp
F
wind
direction
speed
MPH
gust
MPH
rain 1hr
in
rain 24hr
in
rain mn
in
humidity
%
barometer
mb
20190523171130 65 98 14.0 30.0 0.00 0.00 0.00 67 1002.1
20190523170623 65 106 13.0 30.0 0.00 0.00 0.00 67 1002.2
20190523170126 64 280 8.0 24.0 0.00 0.00 0.00 69 1002.3
20190523165617 64 212 16.0 26.0 0.00 0.00 0.00 67 1002.6
20190523165124 63 236 11.0 25.0 0.00 0.00 0.00 69 1002.9
20190523164618 63 127 13.0 25.0 0.00 0.00 0.00 70 1002.8
20190523164114 63 258 15.0 25.0 0.00 0.00 0.00 70 1003.0
20190523163611 63 321 11.0 23.0 0.00 0.00 0.00 70 1003.3
20190523163126 63 243 9.0 23.0 0.00 0.00 0.00 70 1003.2
20190523162616 63 143 12.0 23.0 0.00 0.00 0.00 70 1003.2
20190523162112 63 309 10.0 20.0 0.00 0.00 0.00 71 1003.2
20190523161627 63 182 12.0 21.0 0.00 0.00 0.00 71 1003.4
20190523161124 63 278 9.0 27.0 0.00 0.00 0.00 72 1003.6
20190523160624 62 210 14.0 27.0 0.00 0.00 0.00 70 1003.6
20190523160119 63 227 13.0 27.0 0.00 0.00 0.00 70 1003.9
20190523155611 63 259 17.0 28.0 0.00 0.00 0.00 70 1003.9
20190523155128 63 229 16.0 28.0 0.00 0.00 0.00 70 1003.9
20190523154621 62 235 11.0 22.0 0.00 0.00 0.00 70 1003.9
20190523154116 62 219 11.0 22.0 0.00 0.00 0.00 69 1003.9
20190523153611 62 37 12.0 22.0 0.00 0.00 0.00 69 1004.1
20190523153123 62 233 16.0 22.0 0.00 0.00 0.00 67 1004.1
20190523152618 62 63 6.0 19.0 0.00 0.00 0.00 69 1004.4
20190523152129 62 257 13.0 19.0 0.00 0.00 0.00 68 1004.2
20190523151623 62 330 5.0 24.0 0.00 0.00 0.00 68 1004.5
20190523151116 61 350 12.0 24.0 0.00 0.00 0.00 67 1004.5
20190523150631 62 231 10.0 22.0 0.00 0.00 0.00 66 1004.4
20190523150125 62 238 14.0 21.0 0.00 0.00 0.00 65 1004.5
20190523145617 61 245 8.0 19.0 0.00 0.00 0.00 68 1004.7
20190523145133 61 249 8.0 20.0 0.00 0.00 0.00 68 1004.6
20190523144625 61 269 11.0 20.0 0.00 0.00 0.00 69 1004.7
20190523144120 61 231 11.0 18.0 0.00 0.00 0.00 68 1004.8
20190523143632 61 94 8.0 15.0 0.00 0.00 0.00 71 1005.0
20190523143126 60 210 8.0 17.0 0.00 0.00 0.00 70 1005.0
20190523142620 60 265 7.0 17.0 0.00 0.00 0.00 71 1005.1
20190523142132 59 227 10.0 19.0 0.00 0.00 0.00 71 1005.2
20190523141622 59 231 7.0 15.0 0.00 0.00 0.00 74 1005.1
20190523141123 59 162 7.0 15.0 0.00 0.00 0.00 78 1005.2
20190523140615 58 119 8.0 14.0 0.00 0.00 0.00 80 1005.2
20190523140121 58 191 7.0 14.0 0.00 0.00 0.00 81 1005.5
20190523135617 58 230 5.0 16.0 0.00 0.00 0.00 82 1005.6
20190523135129 58 127 8.0 15.0 0.00 0.00 0.00 81 1005.5
20190523134620 57 239 8.0 17.0 0.00 0.00 0.00 81 1005.7
20190523134119 57 163 6.0 15.0 0.00 0.00 0.00 81 1005.8
20190523133121 57 243 7.0 16.0 0.00 0.00 0.00 82 1006.0
20190523132618 57 181 11.0 16.0 0.00 0.00 0.00 81 1006.2
20190523132112 57 229 8.0 14.0 0.00 0.00 0.00 83 1006.3
20190523131627 57 18 9.0 14.0 0.00 0.00 0.00 82 1006.3
20190523131122 57 221 8.0 19.0 0.00 0.00 0.00 83 1006.4
20190523130617 57 226 10.0 19.0 0.00 0.00 0.00 83 1006.3
20190523130114 57 182 9.0 18.0 0.00 0.00 0.00 85 1006.4
20190523125628 56 233 10.0 18.0 0.00 0.00 0.00 86 1006.4
20190523125123 56 295 8.0 15.0 0.00 0.00 0.00 89 1006.2
20190523124619 56 274 9.0 14.0 0.00 0.00 0.00 90 1006.3
20190523124110 56 250 7.0 16.0 0.00 0.00 0.00 90 1006.4
20190523123626 56 253 10.0 16.0 0.00 0.00 0.00 91 1006.3
20190523123119 56 260 7.0 16.0 0.00 0.00 0.00 91 1006.7
20190523122616 56 250 9.0 15.0 0.00 0.00 0.00 90 1006.6
20190523122130 56 214 8.0 17.0 0.00 0.00 0.00 90 1006.7
20190523121623 56 229 10.0 17.0 0.00 0.00 0.00 90 1006.5
20190523121125 56 193 6.0 12.0 0.00 0.00 0.00 90 1006.4
20190523120615 57 170 5.0 14.0 0.00 0.00 0.00 90 1006.3
20190523120128 57 241 6.0 14.0 0.00 0.00 0.00 90 1006.4
20190523115620 56 132 6.0 14.0 0.00 0.00 0.00 90 1006.4
20190523115113 57 289 7.0 11.0 0.00 0.00 0.00 90 1006.7
20190523114626 57 309 5.0 11.0 0.00 0.00 0.00 90 1006.9
20190523114119 57 131 6.0 11.0 0.00 0.00 0.00 91 1006.9
20190523113631 57 195 6.0 11.0 0.00 0.00 0.00 91 1006.9
20190523113126 57 214 7.0 12.0 0.00 0.00 0.00 90 1006.8
20190523112618 57 212 7.0 12.0 0.00 0.00 0.00 90 1006.8
20190523112128 57 167 5.0 13.0 0.00 0.00 0.00 90 1006.8
20190523111623 57 250 7.0 11.0 0.00 0.00 0.00 90 1006.9
20190523111115 57 234 6.0 9.0 0.00 0.00 0.00 90 1007.0
20190523110626 57 243 5.0 10.0 0.00 0.00 0.00 90 1006.9
20190523110115 57 276 4.0 13.0 0.00 0.00 0.00 91 1006.8
20190523105623 57 192 7.0 13.0 0.00 0.00 0.00 91 1006.6
20190523105116 56 233 9.0 13.0 0.00 0.00 0.00 91 1006.5
20190523104613 56 230 9.0 15.0 0.00 0.00 0.00 91 1006.6
20190523104128 56 274 10.0 15.0 0.00 0.00 0.00 91 1006.6
20190523103623 57 244 8.0 14.0 0.00 0.00 0.00 90 1006.2
20190523103117 57 64 6.0 13.0 0.00 0.00 0.00 89 1005.8
20190523102613 57 231 8.0 13.0 0.00 0.00 0.00 89 1006.0
20190523102128 57 259 7.0 13.0 0.00 0.00 0.00 89 1005.7
20190523101624 57 170 6.0 15.0 0.00 0.00 0.00 87 1005.5
20190523101122 57 107 7.0 16.0 0.00 0.00 0.00 86 1006.1
20190523100615 58 155 8.0 16.0 0.00 0.00 0.00 86 1006.3
20190523100126 58 177 7.0 13.0 0.00 0.00 0.00 85 1006.3
20190523095618 58 184 6.0 13.0 0.00 0.00 0.00 85 1006.2
20190523095115 58 240 7.0 13.0 0.00 0.00 0.00 85 1006.3
20190523094628 58 233 7.0 14.0 0.00 0.00 0.00 84 1006.1
20190523094122 58 236 7.0 14.0 0.00 0.00 0.00 84 1006.3
20190523093611 58 176 6.0 11.0 0.00 0.00 0.00 84 1006.3
20190523093129 58 204 5.0 14.0 0.00 0.00 0.00 84 1006.3
20190523092625 58 208 6.0 14.0 0.00 0.00 0.00 83 1006.4
20190523092116 58 255 6.0 12.0 0.00 0.00 0.00 83 1006.5
20190523091629 58 199 6.0 11.0 0.00 0.00 0.00 83 1006.7
20190523091121 57 238 5.0 10.0 0.00 0.00 0.00 83 1006.7
20190523090615 58 162 6.0 10.0 0.00 0.00 0.00 82 1006.7
20190523090110 58 213 4.0 9.0 0.00 0.00 0.00 81 1006.7
20190523085623 58 182 3.0 13.0 0.00 0.00 0.00 81 1006.6
20190523085117 57 159 6.0 13.0 0.00 0.00 0.00 81 1006.5
20190523084610 57 168 7.0 12.0 0.00 0.00 0.00 80 1006.3
20190523084126 57 214 9.0 12.0 0.00 0.00 0.00 79 1006.3
20190523083620 57 176 8.0 11.0 0.00 0.00 0.00 78 1006.3
20190523083117 58 173 8.0 12.0 0.00 0.00 0.00 78 1006.1
20190523082629 58 166 8.0 12.0 0.00 0.00 0.00 77 1006.1
20190523082124 57 182 9.0 11.0 0.00 0.00 0.00 76 1006.1
20190523081616 58 202 9.0 11.0 0.00 0.00 0.00 75 1005.9
20190523081119 58 236 7.0 12.0 0.00 0.00 0.00 74 1005.9
20190523080622 58 182 9.0 14.0 0.00 0.00 0.00 74 1005.9
20190523080113 58 187 10.0 14.0 0.00 0.00 0.00 73 1005.7
20190523075623 58 171 12.0 14.0 0.00 0.00 0.00 72 1005.5
20190523075116 58 190 12.0 14.0 0.00 0.00 0.00 72 1005.5
20190523074613 58 172 11.0 15.0 0.00 0.00 0.00 71 1005.7
20190523074128 58 158 10.0 15.0 0.00 0.00 0.00 70 1005.8
20190523073623 59 162 9.0 13.0 0.00 0.00 0.00 69 1005.8
20190523073119 59 189 9.0 12.0 0.00 0.00 0.00 68 1005.6
20190523072616 59 178 9.0 13.0 0.00 0.00 0.00 67 1005.6
20190523072111 59 205 8.0 13.0 0.00 0.00 0.00 66 1005.6
20190523071628 59 255 9.0 12.0 0.00 0.00 0.00 65 1005.7
20190523071122 60 210 5.0 12.0 0.00 0.00 0.00 64 1005.6
20190523070619 60 248 6.0 12.0 0.00 0.00 0.00 65 1005.6
20190523070113 60 226 8.0 14.0 0.00 0.00 0.00 64 1005.7
20190523065628 60 179 7.0 14.0 0.00 0.00 0.00 63 1005.7
20190523065120 60 229 6.0 11.0 0.00 0.00 0.00 62 1005.8
20190523064613 60 144 7.0 11.0 0.00 0.00 0.00 63 1005.7
20190523064127 60 59 4.0 10.0 0.00 0.00 0.00 61 1005.8
20190523063620 60 245 6.0 11.0 0.00 0.00 0.00 61 1005.8
20190523063114 61 238 5.0 13.0 0.00 0.00 0.00 61 1005.8
20190523062628 61 19 7.0 13.0 0.00 0.00 0.00 61 1005.7
20190523062123 61 305 7.0 11.0 0.00 0.00 0.00 61 1005.8
20190523061616 60 248 7.0 10.0 0.00 0.00 0.00 62 1005.8
20190523061116 60 354 5.0 11.0 0.00 0.00 0.00 62 1005.7
20190523060631 61 91 6.0 14.0 0.00 0.00 0.00 62 1005.7
20190523060122 60 210 7.0 14.0 0.00 0.00 0.00 61 1005.7
20190523055615 60 212 6.0 12.0 0.00 0.00 0.00 63 1005.8
20190523055130 60 247 6.0 11.0 0.00 0.00 0.00 63 1005.9
20190523054620 61 186 7.0 14.0 0.00 0.00 0.00 62 1006.0
20190523054114 61 170 5.0 14.0 0.00 0.00 0.00 62 1005.9
20190523053628 61 236 6.0 14.0 0.00 0.00 0.00 61 1005.8
20190523053121 61 225 8.0 15.0 0.00 0.00 0.00 61 1005.8
20190523052614 61 233 9.0 19.0 0.00 0.00 0.00 60 1005.8
20190523052130 61 217 12.0 19.0 0.00 0.00 0.00 60 1005.9
20190523051621 61 190 13.0 18.0 0.00 0.00 0.00 60 1006.0
20190523051132 61 243 13.0 16.0 0.00 0.00 0.00 60 1006.0
20190523050625 61 229 12.0 17.0 0.00 0.00 0.00 60 1006.1
20190523050118 61 223 12.0 18.0 0.00 0.00 0.00 60 1006.1
20190523045628 61 203 13.0 18.0 0.00 0.00 0.00 59 1006.2
20190523045123 61 223 13.0 18.0 0.00 0.00 0.00 59 1006.3
20190523044616 61 244 13.0 18.0 0.00 0.00 0.00 59 1006.4
20190523044121 61 239 14.0 19.0 0.00 0.00 0.00 60 1006.4
20190523043618 61 238 15.0 19.0 0.00 0.00 0.00 60 1006.3
20190523043111 61 239 14.0 19.0 0.00 0.00 0.00 60 1006.4
20190523042628 61 201 14.0 19.0 0.00 0.00 0.00 59 1006.3
20190523042125 62 246 14.0 19.0 0.00 0.00 0.00 58 1006.4
20190523041618 62 207 14.0 19.0 0.00 0.00 0.00 56 1006.3
20190523041115 62 200 13.0 18.0 0.00 0.00 0.00 55 1006.4
20190523040613 62 203 13.0 18.0 0.00 0.00 0.00 56 1006.4
20190523040128 62 176 13.0 18.0 0.00 0.00 0.00 55 1006.4
20190523035625 62 169 13.0 18.0 0.00 0.00 0.00 55 1006.5
20190523035120 62 257 14.0 18.0 0.00 0.00 0.00 54 1006.5
20190523034615 62 245 12.0 17.0 0.00 0.00 0.00 54 1006.5
20190523034131 62 214 12.0 17.0 0.00 0.00 0.00 54 1006.4
20190523033625 62 245 12.0 18.0 0.00 0.00 0.00 54 1006.4
20190523033120 62 209 13.0 16.0 0.00 0.00 0.00 54 1006.3
20190523032614 62 283 12.0 16.0 0.00 0.00 0.00 54 1006.5
20190523032110 62 268 12.0 18.0 0.00 0.00 0.00 54 1006.5
20190523031625 62 235 13.0 18.0 0.00 0.00 0.00 54 1006.5
20190523031118 62 300 13.0 18.0 0.00 0.00 0.00 54 1006.5
20190523030630 62 247 14.0 17.0 0.00 0.00 0.00 54 1006.5
20190523030122 62 249 12.0 17.0 0.00 0.00 0.00 54 1006.6
20190523025617 62 247 12.0 17.0 0.00 0.00 0.00 53 1006.5
20190523025110 62 223 12.0 16.0 0.00 0.00 0.00 53 1006.7
20190523024626 62 259 11.0 16.0 0.00 0.00 0.00 53 1006.7
20190523024118 62 252 12.0 17.0 0.00 0.00 0.00 53 1006.6
20190523023630 62 228 13.0 17.0 0.00 0.00 0.00 53 1006.6
20190523023123 62 224 13.0 17.0 0.00 0.00 0.00 53 1006.5
20190523022618 62 245 12.0 18.0 0.00 0.00 0.00 53 1006.6
20190523022130 62 293 13.0 18.0 0.00 0.00 0.00 52 1006.6
20190523021624 62 215 12.0 18.0 0.00 0.00 0.00 52 1006.5
20190523020610 62 269 13.0 20.0 0.00 0.00 0.00 52 1006.6
20190523020128 62 272 11.0 19.0 0.00 0.00 0.00 51 1006.6
20190523015617 62 302 11.0 19.0 0.00 0.00 0.00 50 1006.6
20190523015129 62 248 10.0 15.0 0.00 0.00 0.00 51 1006.6
20190523014623 62 243 10.0 18.0 0.00 0.00 0.00 51 1006.6
20190523014119 62 250 11.0 18.0 0.00 0.00 0.00 51 1006.5
20190523013629 63 247 11.0 15.0 0.00 0.00 0.00 50 1006.5
20190523013120 63 232 10.0 16.0 0.00 0.00 0.00 50 1006.4
20190523012613 63 248 11.0 16.0 0.00 0.00 0.00 48 1006.3
20190523012124 64 264 10.0 14.0 0.00 0.00 0.00 46 1006.1
20190523011619 65 205 10.0 14.0 0.00 0.00 0.00 45 1006.0
20190523011114 66 259 10.0 14.0 0.00 0.00 0.00 42 1006.0
20190523010610 69 287 3.0 5.0 0.00 0.00 0.00 26 1006.1
20190523010125 69 297 4.0 6.0 0.00 0.00 0.00 26 1006.1
20190523005617 69 291 5.0 7.0 0.00 0.00 0.00 26 1006.1
20190523005112 69 297 6.0 7.0 0.00 0.00 0.00 26 1006.1
20190523004627 68 302 7.0 7.0 0.00 0.00 0.00 27 1006.0
20190523004122 68 301 6.0 6.0 0.00 0.00 0.00 27 1005.9
20190523003618 68 300 5.0 7.0 0.00 0.00 0.00 27 1005.8
20190523002629 68 298 7.0 8.0 0.00 0.00 0.00 28 1006.0
20190523002122 68 305 7.0 7.0 0.00 0.00 0.00 28 1005.9
20190523001617 68 306 6.0 9.0 0.00 0.00 0.00 28 1005.9
20190523001121 69 309 7.0 9.0 0.00 0.00 0.00 27 1005.9
20190523000623 69 319 7.0 9.0 0.00 0.00 0.00 27 1006.0
20190523000117 69 307 8.0 10.0 0.00 0.00 0.00 27 1006.0
20190522235630 68 304 9.0 10.0 0.00 0.00 0.00 27 1006.1
20190522235130 68 300 8.0 9.0 0.00 0.00 0.00 30 1006.0
20190522234623 68 303 7.0 10.0 0.00 0.00 0.00 30 1006.0
20190522234116 68 304 9.0 10.0 0.00 0.00 0.00 29 1006.0
20190522233629 68 304 9.0 10.0 0.00 0.00 0.00 28 1006.0
20190522233122 68 304 8.0 10.0 0.00 0.00 0.00 31 1006.1
20190522232615 68 300 7.0 9.0 0.00 0.00 0.00 31 1006.1
20190522232132 69 302 7.0 9.0 0.00 0.00 0.00 30 1006.0
20190522231622 69 269 4.0 9.0 0.00 0.00 0.00 32 1006.0
20190522231117 69 302 7.0 9.0 0.00 0.00 0.00 30 1006.0
20190522230610 69 308 6.0 11.0 0.00 0.00 0.00 32 1005.9
20190522230126 69 297 9.0 12.0 0.00 0.00 0.00 29 1005.9
20190522225618 69 297 8.0 12.0 0.00 0.00 0.00 30 1006.0
20190522225111 69 301 8.0 13.0 0.00 0.00 0.00 32 1006.0
20190522224625 69 297 8.0 13.0 0.00 0.00 0.00 32 1005.9
20190522224117 69 314 10.0 13.0 0.00 0.00 0.00 30 1006.0
20190522223611 69 321 7.0 13.0 0.00 0.00 0.00 32 1005.9
20190522223124 69 302 10.0 12.0 0.00 0.00 0.00 32 1005.9
20190522222620 69 299 6.0 13.0 0.00 0.00 0.00 32 1005.9
20190522222115 69 283 10.0 13.0 0.00 0.00 0.00 31 1005.9
20190522221630 69 319 8.0 13.0 0.00 0.00 0.00 33 1005.9
20190522221126 69 307 9.0 13.0 0.00 0.00 0.00 33 1006.0
20190522220619 69 299 11.0 13.0 0.00 0.00 0.00 33 1005.9
20190522220113 69 300 9.0 14.0 0.00 0.00 0.00 34 1005.9
20190522215629 69 295 10.0 14.0 0.00 0.00 0.00 34 1005.9
20190522215122 69 306 8.0 14.0 0.00 0.00 0.00 34 1006.1
20190522214634 69 310 12.0 15.0 0.00 0.00 0.00 33 1006.0
20190522214124 69 293 11.0 19.0 0.00 0.00 0.00 32 1005.9
20190522213617 69 303 10.0 19.0 0.00 0.00 0.00 33 1006.0
20190522213129 70 272 7.0 18.0 0.00 0.00 0.00 34 1006.1
20190522212624 69 307 10.0 18.0 0.00 0.00 0.00 34 1006.0
20190522212119 69 297 11.0 17.0 0.00 0.00 0.00 32 1006.1
20190522211613 69 304 10.0 17.0 0.00 0.00 0.00 34 1006.1
20190522211123 70 294 11.0 17.0 0.00 0.00 0.00 34 1006.1
20190522210617 69 266 8.0 16.0 0.00 0.00 0.00 34 1006.1
20190522210130 69 304 13.0 16.0 0.00 0.00 0.00 33 1006.0
20190522205624 70 311 8.0 14.0 0.00 0.00 0.00 32 1005.9
20190522205119 69 293 10.0 15.0 0.00 0.00 0.00 34 1006.0
20190522204630 69 243 10.0 17.0 0.00 0.00 0.00 33 1006.0
20190522204126 69 297 11.0 17.0 0.00 0.00 0.00 32 1005.9
20190522203617 68 298 13.0 16.0 0.00 0.00 0.00 31 1006.0
20190522203111 69 302 12.0 16.0 0.00 0.00 0.00 32 1006.0
20190522202627 69 293 10.0 14.0 0.00 0.00 0.00 33 1006.0
20190522202122 69 293 9.0 13.0 0.00 0.00 0.00 31 1005.9
20190522201614 69 316 6.0 16.0 0.00 0.00 0.00 33 1006.0
20190522201117 69 293 12.0 16.0 0.00 0.00 0.00 32 1006.0
20190522200627 69 338 6.0 10.0 0.00 0.00 0.00 32 1005.9
20190522200119 69 276 7.0 10.0 0.00 0.00 0.00 33 1006.0
20190522195630 68 331 4.0 13.0 0.00 0.00 0.00 35 1005.9
20190522195124 68 296 9.0 13.0 0.00 0.00 0.00 34 1006.0
20190522194616 68 297 8.0 13.0 0.00 0.00 0.00 33 1006.0
20190522194126 69 281 7.0 13.0 0.00 0.00 0.00 32 1006.0
20190522193618 69 332 7.0 11.0 0.00 0.00 0.00 33 1005.8
20190522193113 68 259 4.0 11.0 0.00 0.00 0.00 35 1005.9
20190522192629 68 217 5.0 13.0 0.00 0.00 0.00 36 1006.0
20190522192122 67 300 9.0 13.0 0.00 0.00 0.00 36 1005.9
20190522191617 67 293 9.0 13.0 0.00 0.00 0.00 35 1005.9
20190522191111 67 7 9.0 15.0 0.00 0.00 0.00 35 1005.9
20190522190627 67 302 11.0 19.0 0.00 0.00 0.00 34 1006.0
20190522190121 67 302 9.0 17.0 0.00 0.00 0.00 35 1005.9
20190522185616 67 303 12.0 17.0 0.00 0.00 0.00 35 1005.8
20190522185129 67 289 10.0 13.0 0.00 0.00 0.00 35 1005.9
20190522184623 67 279 8.0 15.0 0.00 0.00 0.00 35 1005.8
20190522184117 67 288 9.0 13.0 0.00 0.00 0.00 36 1005.8
20190522183628 67 264 4.0 14.0 0.00 0.00 0.00 36 1005.8
20190522183121 66 302 11.0 14.0 0.00 0.00 0.00 37 1005.8
20190522182614 67 319 6.0 12.0 0.00 0.00 0.00 37 1005.8
20190522182129 67 295 9.0 12.0 0.00 0.00 0.00 37 1005.9
20190522181619 67 301 2.0 12.0 0.00 0.00 0.00 37 1006.0
20190522181119 67 336 5.0 12.0 0.00 0.00 0.00 38 1006.0
20190522180632 66 302 6.0 18.0 0.00 0.00 0.00 39 1006.0
20190522180120 65 300 9.0 18.0 0.00 0.00 0.00 39 1006.1
20190522175631 65 316 5.0 14.0 0.00 0.00 0.00 40 1006.1
20190522175120 65 286 10.0 17.0 0.00 0.00 0.00 39 1006.2
20190522174614 64 305 9.0 17.0 0.00 0.00 0.00 41 1006.3
20190522174127 64 285 13.0 17.0 0.00 0.00 0.00 41 1006.2
20190522173621 65 326 6.0 19.0 0.00 0.00 0.00 43 1006.1
20190522173116 64 345 10.0 19.0 0.00 0.00 0.00 41 1006.1
20190522172626 65 356 10.0 15.0 0.00 0.00 0.00 43 1006.2
20190522172120 64 307 8.0 18.0 0.00 0.00 0.00 41 1006.1
20190522171614 64 297 11.0 18.0 0.00 0.00 0.00 43 1006.1